#timestamp,LO_Frequency,Hit,StdDev 
1552201215.6,286047007.7,N
1552201235.5,286047006.6,N
1552201255.3,286047007.0,N
1552201275.1,286047006.0,N
1552201295.9,286047004.6,N
1552201315.7,286047004.7,N
1552201335.6,286047003.5,N
1552201355.4,286047004.3,N
1552201375.2,286047000.3,N
1552201395.1,286047000.8,N
1552201396.0,286047000.8,N
1552201415.8,286047001.1,N
1552201435.7,286046998.9,N
1552201455.5,286046996.6,N
1552201475.3,286046997.8,N
1552201495.2,286046997.3,N
1552201515.9,286046997.6,N
1552201535.7,286046996.8,N
1552201555.6,286047000.8,N
1552201575.4,286046998.6,N
1552201595.3,286046998.7,N
1552201615.1,286046998.1,N
1552201616.0,286046998.1,N
1552201635.8,286046996.8,N
1552201655.7,286046998.3,N
1552201675.5,286046999.2,N
1552201695.3,286046996.9,N
1552201715.2,286046995.3,N
1552201735.0,286046993.7,N
1552201735.9,286046993.7,N
1552201755.8,286046994.3,N
1552201775.6,286046992.7,N
1552201795.4,286046990.1,N
1552201815.3,286046989.4,N
1552201835.1,286046987.0,Y
1552201855.9,286046991.1,P
1552201875.7,286046988.5,P
1552201895.5,286046988.7,N
1552201915.4,286046989.2,N
1552201935.2,286046989.9,N
1552201955.0,286046987.6,Y
1552201956.0,286046987.6,P
1552201975.8,286046999.1,N
1552201995.6,286046997.2,N
1552202015.5,286046997.3,N
1552202035.3,286046998.0,N
1552202055.1,286046996.2,N
1552202075.9,286046995.7,N
1552202095.7,286046995.8,N
1552202115.6,286046993.8,N
1552202135.4,286046994.0,N
1552202155.2,286046995.7,N
1552202175.1,286046996.0,N
1552202176.0,286046996.0,N
1552202195.8,286046997.0,N
1552202215.6,286046998.1,N
1552202235.5,286047001.5,N
1552202255.3,286047003.0,N
1552202275.2,286047005.8,N
1552202295.9,286047005.4,N
1552202315.7,286047003.3,N
1552202335.6,286047001.4,N
1552202355.4,286047002.6,N
1552202375.2,286047000.1,N
1552202395.1,286047000.4,N
1552202396.0,286047000.4,N
1552202415.8,286046999.2,N
1552202435.7,286046996.7,N
1552202455.5,286046995.4,N
1552202475.3,286046997.9,N
1552202495.2,286046995.1,N
1552202515.0,286046999.4,N
1552202515.9,286046999.4,N
1552202535.8,286046999.5,N
1552202555.6,286046998.9,N
1552202575.4,286046999.2,N
1552202595.3,286046999.4,N
1552202615.1,286046998.3,N
1552202635.8,286047000.2,N
1552202655.7,286047001.6,N
1552202675.5,286047003.6,N
1552202695.4,286047004.7,N
1552202715.2,286047003.1,N
1552202735.0,286047003.3,N
1552202735.9,286047003.3,N
1552202755.8,286047003.1,N
1552202775.6,286047003.5,N
1552202795.5,286047001.6,N
1552202815.3,286047000.6,N
1552202835.1,286046999.7,N
1552202855.9,286047000.1,N
1552202875.7,286047002.4,N
1552202895.6,286047003.7,N
1552202915.4,286047004.3,N
1552202935.2,286047001.4,N
1552202955.1,286047011.9,Y
1552202956.0,286047003.5,P
1552202975.8,286047003.0,N
1552202995.6,286047005.1,P
1552203015.5,286047005.2,Y
1552203035.3,286047000.2,P
1552203055.2,286046998.1,N
1552203075.0,286046999.4,N
1552203075.9,286046999.4,N
1552203095.7,286046997.6,N
1552203115.6,286046994.9,N
1552203135.4,286046996.0,N
1552203155.3,286046994.2,N
1552203175.1,286046993.1,N
1552203176.0,286046993.1,N
1552203195.8,286046990.9,N
1552203215.7,286046990.9,N
1552203235.5,286046991.6,N
1552203255.3,286046991.5,N
1552203275.2,286046991.2,N
1552203295.0,286046992.9,N
1552203295.9,286046992.9,N
1552203315.8,286046994.8,N
1552203335.6,286046992.0,N
1552203355.4,286046992.2,N
1552203375.3,286046992.3,N
1552203395.1,286046995.8,N
1552203415.8,286046997.2,N
1552203435.7,286047000.9,N
1552203455.5,286047001.4,N
1552203475.4,286047002.8,N
1552203495.2,286046999.9,N
1552203515.0,286047000.7,N
1552203515.9,286047000.7,N
1552203535.8,286046999.4,N
1552203555.6,286046997.0,N
1552203575.5,286046995.4,N
1552203595.3,286046994.5,N
1552203615.1,286046992.3,N
1552203635.9,286046990.6,N
1552203655.7,286046990.1,N
1552203675.5,286046990.1,N
1552203695.4,286046992.9,N
1552203715.2,286046994.2,N
1552203735.1,286046993.6,N
1552203736.0,286046993.6,N
1552203755.8,286046996.1,N
1552203775.6,286046998.0,N
1552203795.5,286046997.6,N
1552203815.3,286046995.3,N
1552203835.1,286046996.2,N
1552203855.9,286046995.8,N
1552203875.7,286046994.6,N
1552203895.6,286046993.5,N
1552203915.4,286046998.5,N
1552203935.2,286047000.7,N
1552203955.1,286046999.8,N
1552203956.0,286046999.8,N
1552203975.8,286047000.2,N
1552203995.7,286047002.6,N
1552204015.5,286047000.0,N
1552204035.3,286047000.0,N
1552204055.2,286047002.1,N
1552204075.0,286047004.4,N
1552204075.9,286047004.4,N
1552204095.7,286047003.5,N
1552204115.6,286047005.5,N
1552204135.4,286047007.2,N
1552204155.3,286047007.1,N
1552204175.1,286047006.3,N
1552204195.8,286047006.1,N
1552204215.7,286047009.0,N
1552204235.5,286047004.5,N
1552204255.4,286047007.2,N
1552204275.2,286047005.4,N
1552204295.0,286047005.4,N
1552204295.9,286047005.4,N
1552204315.8,286047006.9,N
1552204335.6,286047006.6,N
1552204355.4,286047007.8,N
1552204375.3,286047008.9,N
1552204395.1,286047004.6,N
1552204415.9,286047004.9,N
1552204435.7,286047005.6,N
1552204455.5,286047004.1,N
1552204475.4,286047002.5,N
1552204495.2,286047000.5,N
1552204515.1,286046998.5,N
1552204516.0,286046998.5,N
1552204535.8,286046999.2,N
1552204555.6,286046995.3,N
1552204575.5,286046996.1,N
1552204595.3,286046994.8,N
1552204615.1,286046994.7,N
1552204635.9,286046992.0,N
1552204655.7,286046991.8,N
1552204675.6,286046994.4,N
1552204695.4,286046994.1,N
1552204715.2,286046992.3,N
1552204735.1,286046990.2,N
1552204736.0,286046990.2,N
1552204755.8,286046990.2,N
1552204775.6,286046989.0,N
1552204795.5,286046988.5,N
